| time (UTC) | temp F | wind direction | speed knots | gust knots | rain 1hr in | rain 24hr in | rain mn in | humidity % | barometer mb |
| 20260906124506 | 81 | 155 | 0.9 | 4.3 | 0.00 | 0.03 | 0.01 | 52 | 1017.0 |
| 20260906123006 | 80 | 232 | 0.9 | 5.2 | 0.00 | 0.03 | 0.01 | 53 | 1017.2 |
| 20260906121501 | 79 | 142 | 1.7 | 5.2 | 0.00 | 0.03 | 0.01 | 55 | 1017.2 |
| 20260906120101 | 79 | 184 | 3.5 | 7.8 | 0.00 | 0.03 | 0.01 | 57 | 1017.3 |
| 20260906114557 | 78 | 117 | 0.9 | 6.1 | 0.00 | 0.14 | 0.01 | 59 | 1017.4 |
| 20260906113053 | 77 | 336 | 0.9 | 3.5 | 0.00 | 0.14 | 0.01 | 58 | 1017.6 |
| 20260906111552 | 76 | 161 | 4.3 | 7.8 | 0.00 | 0.14 | 0.01 | 60 | 1017.6 |
| 20260906110054 | 75 | 62 | 0.0 | 4.3 | 0.00 | 0.14 | 0.01 | 60 | 1017.8 |
| 20260906104546 | 75 | 305 | 0.9 | 7.8 | 0.00 | 0.14 | 0.01 | 62 | 1017.9 |
| 20260906103101 | 75 | 140 | 0.9 | 4.3 | 0.00 | 0.14 | 0.01 | 62 | 1017.9 |
| 20260906101543 | 74 | 178 | 1.7 | 5.2 | 0.00 | 0.14 | 0.01 | 67 | 1018.1 |
| 20260906100039 | 73 | 86 | 0.9 | 5.2 | 0.00 | 0.14 | 0.01 | 66 | 1018.2 |
| 20260906094537 | 72 | 172 | 0.9 | 4.3 | 0.00 | 0.14 | 0.01 | 69 | 1018.3 |
| 20260906093039 | 72 | 175 | 1.7 | 4.3 | 0.00 | 0.14 | 0.01 | 70 | 1018.6 |
| 20260906091533 | 71 | 159 | 0.9 | 7.8 | 0.00 | 0.14 | 0.01 | 73 | 1018.7 |
| 20260906090047 | 70 | 115 | 0.9 | 3.5 | 0.00 | 0.14 | 0.01 | 77 | 1018.7 |
| 20260906084524 | 68 | 217 | 0.0 | 3.5 | 0.00 | 0.14 | 0.01 | 83 | 1018.8 |
| 20260906083023 | 66 | 199 | 0.9 | 3.5 | 0.00 | 0.14 | 0.01 | 87 | 1018.8 |
| 20260906081517 | 63 | 215 | 0.9 | 3.5 | 0.00 | 0.14 | 0.01 | 94 | 1018.9 |
| 20260906080011 | 62 | 218 | 0.0 | 1.7 | 0.00 | 0.14 | 0.01 | 96 | 1018.9 |
| 20260906074507 | 61 | 219 | 0.0 | 0.9 | 0.00 | 0.14 | 0.01 | 97 | 1018.9 |
| 20260906073004 | 60 | 219 | 0.0 | 1.7 | 0.00 | 0.14 | 0.01 | 97 | 1018.8 |
| 20260906071502 | 59 | 200 | 0.0 | 3.5 | 0.00 | 0.14 | 0.01 | 97 | 1018.9 |
| 20260906070059 | 58 | 170 | 2.6 | 5.2 | 0.00 | 0.14 | 0.01 | 97 | 1018.8 |
| 20260906064557 | 58 | 90 | 1.7 | 3.5 | 0.00 | 0.14 | 0.01 | 97 | 1018.6 |
| 20260906063056 | 57 | 170 | 0.0 | 0.0 | 0.00 | 0.14 | 0.01 | 97 | 1018.6 |
| 20260906061555 | 57 | 134 | 0.0 | 2.6 | 0.00 | 0.14 | 0.01 | 97 | 1018.5 |
| 20260906060053 | 54 | 130 | 0.0 | 0.0 | 0.00 | 0.14 | 0.01 | 97 | 1018.2 |
| 20260906054551 | 54 | 130 | 0.0 | 0.9 | 0.00 | 0.14 | 0.01 | 97 | 1018.2 |
| 20260906053050 | 53 | 16 | 0.0 | 0.0 | 0.00 | 0.14 | 0.01 | 97 | 1018.1 |
| 20260906051559 | 54 | 37 | 0.0 | 0.9 | 0.00 | 0.14 | 0.01 | 96 | 1017.8 |
| 20260906044551 | 54 | 104 | 0.0 | 0.9 | 0.00 | 0.14 | 0.01 | 97 | 1017.6 |
| 20260906043053 | 54 | 104 | 0.0 | 0.9 | 0.00 | 0.14 | 0.01 | 96 | 1017.5 |
| 20260906041542 | 54 | 82 | 0.9 | 2.6 | 0.00 | 0.14 | 0.01 | 96 | 1017.3 |
| 20260906040041 | 54 | 34 | 0.0 | 0.0 | 0.00 | 0.14 | 0.01 | 96 | 1017.2 |
| 20260906034550 | 55 | 34 | 0.0 | 0.9 | 0.00 | 0.14 | 0.01 | 96 | 1017.1 |
| 20260906033037 | 55 | 34 | 0.0 | 0.0 | 0.00 | 0.14 | 0.01 | 96 | 1016.9 |
| 20260906031542 | 55 | 34 | 0.0 | 0.0 | 0.00 | 0.14 | 0.01 | 96 | 1016.9 |
| 20260906030034 | 56 | 34 | 0.0 | 0.0 | 0.00 | 0.14 | 0.01 | 96 | 1016.8 |
| 20260906024531 | 56 | 34 | 0.0 | 0.9 | 0.00 | 0.14 | 0.01 | 96 | 1016.7 |
| 20260906023031 | 56 | 34 | 0.0 | 0.9 | 0.00 | 0.14 | 0.01 | 96 | 1016.7 |
| 20260906021529 | 56 | 42 | 0.0 | 0.0 | 0.00 | 0.14 | 0.01 | 96 | 1016.6 |
| 20260906020027 | 57 | 42 | 0.9 | 1.7 | 0.00 | 0.14 | 0.01 | 96 | 1016.6 |
| 20260906014528 | 57 | 293 | 0.0 | 0.9 | 0.00 | 0.14 | 0.01 | 96 | 1016.5 |
| 20260906013031 | 57 | 293 | 0.0 | 0.9 | 0.00 | 0.14 | 0.01 | 96 | 1016.4 |
| 20260906011522 | 58 | 293 | 0.0 | 0.9 | 0.00 | 0.14 | 0.01 | 96 | 1016.2 |
| 20260906010020 | 58 | 307 | 0.0 | 1.7 | 0.00 | 0.14 | 0.01 | 96 | 1016.1 |
| 20260906004518 | 59 | 47 | 0.0 | 1.7 | 0.00 | 0.14 | 0.01 | 96 | 1016.1 |
| 20260906003016 | 59 | 308 | 0.0 | 0.9 | 0.00 | 0.14 | 0.01 | 96 | 1016.2 |
| 20260906001514 | 59 | 338 | 0.0 | 0.9 | 0.00 | 0.14 | 0.01 | 96 | 1016.0 |
| 20260906000014 | 59 | 338 | 0.0 | 0.9 | 0.00 | 0.14 | 0.01 | 96 | 1015.9 |
| 20260905234511 | 60 | 325 | 0.0 | 3.5 | 0.00 | 0.14 | 0.01 | 96 | 1015.9 |
| 20260905233010 | 60 | 270 | 0.0 | 1.7 | 0.01 | 0.14 | 0.01 | 96 | 1015.7 |
| 20260905231520 | 60 | 288 | 0.0 | 0.9 | 0.01 | 0.14 | 0.01 | 96 | 1015.7 |
| 20260905230008 | 60 | 288 | 0.0 | 0.9 | 0.01 | 0.14 | 0.01 | 96 | 1015.7 |
| 20260905224507 | 60 | 20 | 0.0 | 1.7 | 0.01 | 0.14 | 0.01 | 96 | 1015.6 |
| 20260905223006 | 60 | 167 | 0.0 | 1.7 | 0.00 | 0.13 | 0.00 | 95 | 1015.5 |
| 20260905221506 | 60 | 18 | 0.0 | 0.9 | 0.00 | 0.13 | 0.00 | 95 | 1015.6 |
| 20260905220002 | 61 | 45 | 0.0 | 1.7 | 0.00 | 0.13 | 0.13 | 95 | 1015.3 |
| 20260905214604 | 61 | 12 | 0.0 | 0.9 | 0.00 | 0.13 | 0.13 | 95 | 1015.3 |
| 20260905213059 | 61 | 42 | 0.0 | 0.0 | 0.00 | 0.13 | 0.13 | 95 | 1015.1 |
| 20260905211558 | 62 | 42 | 0.0 | 0.0 | 0.00 | 0.13 | 0.13 | 95 | 1015.1 |
| 20260905210106 | 62 | 42 | 0.0 | 0.9 | 0.00 | 0.13 | 0.13 | 94 | 1015.1 |
| 20260905204557 | 63 | 42 | 0.0 | 0.9 | 0.00 | 0.13 | 0.13 | 94 | 1015.1 |
| 20260905203108 | 63 | 30 | 0.0 | 0.0 | 0.00 | 0.13 | 0.13 | 94 | 1014.8 |
| 20260905201554 | 63 | 32 | 0.0 | 2.6 | 0.00 | 0.13 | 0.13 | 94 | 1014.7 |
| 20260905200056 | 63 | 144 | 0.9 | 2.6 | 0.00 | 0.13 | 0.13 | 93 | 1014.3 |
| 20260905194550 | 64 | 145 | 0.0 | 1.7 | 0.00 | 0.13 | 0.13 | 93 | 1014.5 |
| 20260905193047 | 64 | 100 | 0.0 | 0.9 | 0.00 | 0.13 | 0.13 | 93 | 1014.2 |
| 20260905191546 | 65 | 101 | 0.0 | 0.0 | 0.00 | 0.13 | 0.13 | 93 | 1013.9 |
| 20260905190046 | 65 | 101 | 0.0 | 2.6 | 0.00 | 0.13 | 0.13 | 92 | 1013.7 |
| 20260905184546 | 66 | 134 | 0.0 | 0.0 | 0.00 | 0.13 | 0.13 | 91 | 1013.5 |
| 20260905183040 | 66 | 184 | 0.0 | 0.9 | 0.00 | 0.13 | 0.13 | 90 | 1013.2 |
| 20260905181540 | 67 | 184 | 0.0 | 1.7 | 0.00 | 0.13 | 0.13 | 89 | 1013.1 |
| 20260905180041 | 68 | 156 | 0.0 | 0.9 | 0.00 | 0.13 | 0.13 | 88 | 1012.9 |
| 20260905174539 | 69 | 156 | 0.0 | 0.9 | 0.00 | 0.13 | 0.13 | 87 | 1012.8 |
| 20260905173039 | 70 | 156 | 0.0 | 0.0 | 0.00 | 0.13 | 0.13 | 84 | 1012.4 |
| 20260905171553 | 71 | 137 | 0.0 | 0.9 | 0.00 | 0.13 | 0.13 | 83 | 1012.3 |
| 20260905170037 | 72 | 137 | 0.0 | 1.7 | 0.00 | 0.13 | 0.13 | 82 | 1012.2 |
| 20260905164544 | 72 | 67 | 0.0 | 1.7 | 0.00 | 0.13 | 0.13 | 80 | 1012.1 |
| 20260905163044 | 72 | 119 | 0.9 | 1.7 | 0.00 | 0.13 | 0.13 | 80 | 1011.8 |
| 20260905161535 | 73 | 186 | 0.0 | 2.6 | 0.00 | 0.13 | 0.13 | 78 | 1011.7 |
| 20260905160034 | 73 | 186 | 0.0 | 3.5 | 0.00 | 0.13 | 0.13 | 78 | 1011.7 |
| 20260905154653 | 73 | 182 | 0.0 | 2.6 | 0.00 | 0.13 | 0.13 | 78 | 1011.6 |
| 20260905153033 | 73 | 174 | 1.7 | 2.6 | 0.00 | 0.13 | 0.13 | 77 | 1011.5 |
| 20260905151532 | 72 | 171 | 1.7 | 3.5 | 0.00 | 0.13 | 0.13 | 80 | 1011.6 |
| 20260905150040 | 73 | 159 | 0.9 | 4.3 | 0.00 | 0.13 | 0.13 | 80 | 1011.5 |
| 20260905144535 | 72 | 169 | 1.7 | 5.2 | 0.00 | 0.13 | 0.13 | 82 | 1011.7 |
| 20260905143029 | 70 | 190 | 0.0 | 5.2 | 0.00 | 0.13 | 0.13 | 85 | 1011.8 |
| 20260905141527 | 68 | 188 | 1.7 | 6.1 | 0.00 | 0.13 | 0.13 | 89 | 1011.7 |
| 20260905140029 | 67 | 157 | 2.6 | 4.3 | 0.00 | 0.13 | 0.13 | 88 | 1011.9 |
| 20260905134527 | 66 | 162 | 1.7 | 4.3 | 0.00 | 0.13 | 0.13 | 90 | 1011.9 |
| 20260905133026 | 66 | 171 | 1.7 | 5.2 | 0.00 | 0.13 | 0.13 | 91 | 1012.1 |
| 20260905131535 | 65 | 175 | 2.6 | 5.2 | 0.02 | 0.13 | 0.13 | 91 | 1012.3 |
| 20260905130026 | 65 | 161 | 0.9 | 4.3 | 0.02 | 0.13 | 0.13 | 91 | 1012.2 |